Change the Weather History Date:

Wednesday, November 6, 2013

  Actual Average Record
Temperature  
Mean Temperature 47 °F -  
Max Temperature 59 °F 56 °F 80 °F (1999)
Min Temperature 33 °F 36 °F 23 °F (2010)
Degree Days  
Heating Degree Days 18    
Moisture  
Dew Point 46 °F    
Average Humidity 86    
Maximum Humidity 94    
Minimum Humidity 71    
Precipitation  
Precipitation 0.30 in - - ()
Sea Level Pressure  
Sea Level Pressure 30.06 in    
Wind  
Wind Speed 9 mph (WSW)    
Max Wind Speed 22 mph    
Max Gust Speed 33 mph    
Visibility 8 miles    
Events Rain    
Averages and records for this station are not official NWS values.
T = Trace of Precipitation, MM = Missing Value Source: NWS Daily Summary

Daily Weather History Graph

Daily Weather History Graph

Search for Another Location

Airport or City:

Trip Planner

Search our weather history database for the weather conditions in past years. The results will help you decide how hot, cold, wet, or windy it might be!

Date:

Astronomy

Nov. 06, 2013 Rise Set
Actual Time 6:35 AM CST 4:56 PM CST
Civil Twilight 6:07 AM CST 5:24 PM CST
Nautical Twilight 5:35 AM CST 5:56 PM CST
Astronomical Twilight 5:04 AM CST 6:27 PM CST
Moon 9:49 AM CST (11/6) 8:02 PM CST (11/6)
Length of Visible Light 11h 17m
Length of Day
10h 21m
Waxing Crescent, 14% of the Moon is Illuminated
Nov 6
Waxing Crescent
Nov 9
First Quarter
Nov 17
Full
Nov 25
Last Quarter
Dec 2
New

Hourly Weather History & Observations

Time (CST) Temp. Windchill Dew Point Humidity Pressure Visibility Wind Dir Wind Speed Gust Speed Precip Events Conditions
12:54 AM 57.9 °F - 54.0 °F 87% 29.97 in 10.0 mi South 5.8 mph - 0.00 in   Clear
1:54 AM 57.9 °F - 54.0 °F 87% 29.94 in 10.0 mi SSE 8.1 mph - 0.00 in   Scattered Clouds
2:54 AM 59.0 °F - 54.0 °F 83% 29.93 in 10.0 mi SSW 6.9 mph - 0.00 in Rain Light Rain
3:05 AM 59.0 °F - 55.4 °F 88% 29.94 in 6.0 mi SSW 6.9 mph - 0.03 in Rain Rain
3:22 AM 57.2 °F - 55.4 °F 94% 29.93 in 9.0 mi Variable 5.8 mph - 0.05 in Rain Light Rain
3:54 AM 59.0 °F - 55.0 °F 87% 29.91 in 8.0 mi South 6.9 mph - 0.10 in Rain Light Rain
4:05 AM 59.0 °F - 55.4 °F 88% 29.91 in 10.0 mi South 6.9 mph - 0.00 in Rain Light Rain
4:54 AM 59.0 °F - 55.9 °F 90% 29.90 in 5.0 mi South 11.5 mph 19.6 mph 0.11 in Rain Rain
5:54 AM 57.9 °F - 55.9 °F 93% 29.93 in 5.0 mi SW 10.4 mph 18.4 mph 0.04 in Rain Rain
6:54 AM 57.9 °F - 55.9 °F 93% 29.93 in 2.0 mi South 10.4 mph - 0.02 in Rain Light Rain
6:56 AM 57.2 °F - 55.4 °F 94% 29.93 in 5.0 mi South 11.5 mph - 0.00 in Rain Light Rain
7:27 AM 57.2 °F - 55.4 °F 94% 29.93 in 10.0 mi SSW 8.1 mph - 0.00 in   Overcast
7:54 AM 57.9 °F - 55.9 °F 93% 29.91 in 10.0 mi South 6.9 mph - 0.00 in   Overcast
8:39 AM 59.0 °F - 55.4 °F 88% 29.95 in 10.0 mi SW 8.1 mph - 0.00 in   Overcast
8:54 AM 59.0 °F - 55.9 °F 90% 29.95 in 10.0 mi WSW 6.9 mph - 0.00 in   Overcast
9:12 AM 51.8 °F - 48.2 °F 88% 29.99 in 2.5 mi WNW 19.6 mph 33.4 mph 0.01 in Rain Light Rain
9:16 AM 50.0 °F - 46.4 °F 87% 30.00 in 3.0 mi WNW 21.9 mph 31.1 mph 0.02 in Rain Light Rain
9:54 AM 48.9 °F - 46.0 °F 90% 30.02 in 3.0 mi WNW 15.0 mph - 0.03 in Rain Light Rain
10:54 AM 46.9 °F - 43.0 °F 86% 30.07 in 7.0 mi WNW 13.8 mph 21.9 mph 0.00 in Rain Light Rain
10:57 AM 46.4 °F 40.7 °F 42.8 °F 87% 30.07 in 4.0 mi WNW 12.7 mph 21.9 mph 0.00 in Rain Light Rain
11:03 AM 46.4 °F 40.1 °F 44.6 °F 93% 30.07 in 4.0 mi WNW 15.0 mph 20.7 mph 0.00 in Rain Light Rain
11:54 AM 45.0 °F 38.9 °F 42.1 °F 90% 30.09 in 10.0 mi WNW 12.7 mph - 0.00 in   Overcast
12:54 PM 44.1 °F 37.1 °F 39.9 °F 85% 30.11 in 10.0 mi WNW 15.0 mph - N/A   Overcast
1:54 PM 44.1 °F 36.8 °F 39.0 °F 82% 30.12 in 10.0 mi WNW 16.1 mph 25.3 mph N/A   Overcast
2:37 PM 44.6 °F 41.4 °F 37.4 °F 76% 30.12 in 10.0 mi WNW 5.8 mph - N/A   Overcast
2:54 PM 45.0 °F 39.7 °F 37.9 °F 76% 30.14 in 10.0 mi WNW 10.4 mph - N/A   Overcast
3:54 PM 45.0 °F 39.3 °F 37.9 °F 76% 30.17 in 10.0 mi NW 11.5 mph - N/A   Overcast
4:54 PM 45.0 °F 40.6 °F 36.0 °F 71% 30.20 in 10.0 mi WNW 8.1 mph - N/A   Overcast
5:54 PM 44.1 °F 38.1 °F 36.0 °F 73% 30.22 in 10.0 mi NW 11.5 mph - N/A   Overcast
6:54 PM 43.0 °F 38.2 °F 34.0 °F 71% 30.24 in 10.0 mi WNW 8.1 mph - N/A   Clear
7:54 PM 37.9 °F 34.4 °F 32.0 °F 79% 30.25 in 10.0 mi SW 4.6 mph - N/A   Clear
8:54 PM 35.1 °F 31.0 °F 32.0 °F 89% 30.26 in 10.0 mi West 4.6 mph - N/A   Clear
9:54 PM 36.0 °F 33.3 °F 33.1 °F 89% 30.28 in 10.0 mi West 3.5 mph - N/A   Clear
10:54 PM 36.0 °F 29.6 °F 33.1 °F 89% 30.29 in 10.0 mi West 8.1 mph - N/A   Clear
11:54 PM 33.1 °F 27.7 °F 30.9 °F 92% 30.30 in 10.0 mi West 5.8 mph - N/A   Clear